Location: Rayville (historical)
(39.9992°N, 99.6815°W)
Time: 16:20:43
(UTC+00:00)

Cosmos 921 Rocket - Pass Details

Date: 18 February 2020
Orbit: 572 x 631 km, 75.8° (Epoch: 06 April)

Event Time Altitude Azimuth Distance (km) Brightness Sun altitude
Rises 02:15:38 0° 207° (SSW) 2,890 6.8 -23.4°
Reaches altitude 10° 02:17:55 10° 212° (SSW) 1,994 6.0 -23.9°
Maximum altitude 02:22:16 53° 289° (WNW) 775 3.8 -24.7°
Enters shadow 02:26:10 13° 5° (N) 1,816 5.4 -25.4°
